Location: Caltech
(34.1382°N, 118.1253°W)
Time: 01:02:42
(UTC-07:00)

PCSat - Visible Passes

Search period start: 23 August 2017 00:00
Search period end: 02 September 2017 00:00
Orbit: 785 x 795 km, 67.1° (Epoch: 22 August)

Date Brightness Start Highest point End Pass type
(mag) Time Alt. Az. Time Alt. Az. Time Alt. Az.
23 Aug 11.2 22:13:04 25° NNE 22:13:04 25° NNE 22:15:16 10° NNE visible
23 Aug 12.3 23:53:40 12° NW 23:53:55 12° NW 23:56:10 10° NNW visible
24 Aug 10.5 21:41:15 34° NE 21:41:15 34° NE 21:44:19 10° NNE visible
24 Aug 12.0 23:21:47 16° WNW 23:22:47 17° NW 23:26:17 10° N visible
25 Aug 9.8 21:07:10 39° SE 21:08:10 43° ESE 21:13:16 10° NE visible
25 Aug 11.7 22:47:26 10° WSW 22:51:42 23° NW 22:55:58 10° N visible
26 Aug 12.4 05:55:33 10° N 05:59:06 17° NE 06:02:37 10° E visible
26 Aug 10.3 20:32:45 10° SSE 20:37:23 30° ESE 20:42:03 10° NE visible
26 Aug 11.2 22:15:52 10° WSW 22:20:39 31° WNW 22:25:29 10° N visible
27 Aug 12.7 05:25:38 10° NNE 05:27:58 13° NE 05:30:17 10° ENE visible
27 Aug 10.7 20:02:42 10° SSE 20:06:40 21° ESE 20:10:36 10° ENE visible
27 Aug 10.6 21:44:32 10° SW 21:49:40 44° WNW 21:54:51 10° NNE visible
28 Aug 10.0 21:13:23 10° SW 21:18:44 62° WNW 21:24:07 10° NNE visible
29 Aug 9.5 20:42:25 10° SSW 20:47:50 87° WNW 20:53:18 10° NNE visible
29 Aug 12.7 22:30:03 10° WNW 22:31:59 12° NW 22:33:56 10° NNW visible
30 Aug 11.5 05:34:21 10° N 05:39:15 34° ENE 05:44:07 10° ESE visible
30 Aug 9.5 20:11:38 10° SSW 20:16:59 66° ESE 20:22:22 10° NNE visible
30 Aug 12.4 21:57:31 10° W 22:00:50 16° NW 22:04:11 10° NNW visible
31 Aug 12.0 05:03:49 10° N 05:08:14 25° NE 05:12:36 10° ESE visible
31 Aug 9.9 19:41:02 10° S 19:46:10 45° ESE 19:51:19 10° NE visible
31 Aug 12.0 21:25:35 10° WSW 21:29:44 22° NW 21:33:55 10° N visible
01 Sep 12.4 04:33:28 10° N 04:37:09 18° NE 04:40:49 10° E visible
01 Sep 11.5 20:53:59 10° WSW 20:58:42 30° WNW 21:03:27 10° N visible
